Retour au catalogue

STARLINK-36044

ActifCommunicationsVLEO
NORAD 66799·PAYLOAD·🇺🇸 United States

Lancé Dec 1, 2025 depuis Cape Canaveral Space Force Station

Loading…

Prochains Passages (prochaines 24 heures)

TLE

FraisSource: CelesTrak SupGP

Époque: Sep 14, 2026, 23:05 UTC

1 66799C 25278J   26257.96229167 -.00039713  00000+0 -14387-2 0  2571
2 66799  42.9991 125.1867 0001497 267.8016 283.7979 15.27590937    18

Suivez STARLINK-36044 en temps réel avec AllMySat

Download on the App Store